EHI
0 0 0 0 0 0 0 0 0 0 0 0 0 0 1 1 1 0 0 1 5 9 13 19 24 27 27 24 20 18 16 14 11 8 6 4 3 3 4 5 6 5 4 3 3 2 1 0 0
0 0 0 0 0 0 0 0 0 0 0 0 0 0 1 2 1 0 0 2 7 9 12 17 24 28 26 22 19 18 16 14 11 8 6 4 4 4 4 4 5 5 4 3 3 2 1 0 0
0 0 0 0 0 0 0 0 0 0 0 0 0 1 1 1 1 0 2 5 8 10 12 18 25 27 24 19 17 17 16 14 11 8 6 5 5 5 4 4 4 5 5 3 2 1 1 0 0
0 0 0 0 0 0 0 0 0 0 0 0 1 2 2 1 1 1 5 9 10 10 13 21 27 27 22 17 14 14 13 12 9 7 5 4 4 5 5 4 3 4 4 3 1 1 1 0 0
0 0 0 0 0 0 0 0 0 0 0 0 1 3 3 2 2 2 6 11 12 9 12 19 25 25 22 18 13 11 11 10 7 5 4 3 3 4 5 4 3 3 2 1 1 1 0 0 0
0 0 0 0 0 0 0 0 0 0 0 1 2 3 3 2 2 2 5 9 9 7 8 14 19 20 19 18 14 11 10 9 6 4 3 2 2 2 4 5 4 2 1 0 0 0 0 0 0
0 0 0 0 0 0 0 0 0 0 0 1 2 3 3 2 1 1 3 5 5 4 6 11 13 14 14 15 13 10 9 8 6 4 3 2 1 1 4 5 4 2 0 0 0 0 0 0 1
0 0 0 0 0 0 0 0 0 0 0 1 3 3 3 2 1 0 2 2 2 2 5 8 10 11 11 11 9 8 7 7 6 4 2 1 0 1 2 3 3 2 0 0 0 0 0 0 1
0 0 0 0 0 0 0 0 0 0 1 2 3 3 2 2 2 1 1 1 1 2 4 7 8 8 8 6 5 5 6 6 5 3 1 0 0 0 1 1 1 1 0 0 0 0 0 0 1
0 0 0 0 0 0 0 0 0 0 1 2 3 3 3 3 3 2 0 0 1 1 3 5 6 6 5 3 3 5 6 5 4 2 1 0 0 0 0 0 0 0 0 0 0 0 0 0 0
0 0 0 0 0 0 0 0 0 0 1 2 3 3 3 4 4 3 1 0 0 1 3 4 5 4 3 1 2 5 6 4 3 1 1 0 1 1 0 0 0 0 0 0 0 0 0 0 0
0 0 0 0 0 0 0 0 0 0 0 1 2 2 2 3 3 3 1 0 0 0 2 3 4 3 1 0 1 4 5 4 2 1 1 1 1 2 1 0 0 0 0 0 0 0 0 0 0
0 0 0 0 0 0 0 0 0 0 1 2 2 2 1 1 2 2 1 0 0 0 0 1 2 1 0 0 1 3 3 2 1 1 1 0 1 2 1 0 0 0 0 0 0 0 0 0 0
0 0 0 0 0 0 0 0 0 0 1 3 3 2 0 0 1 1 0 0 0 0 0 0 0 0 0 0 0 1 2 1 0 0 0 0 0 1 1 1 0 0 0 0 0 0 0 0 0
0 0 0 0 0 0 0 0 0 0 0 1 2 1 0 0 0 0 0 0 0 0 0 0 0 0 0 0 0 1 1 0 0 0 0 0 0 1 2 1 0 0 0 0 0 0 0 0 0
0 0 0 0 0 0 0 0 0 0 0 0 0 0 0 0 0 0 0 0 0 0 0 0 0 0 0 0 0 1 2 1 1 0 0 0 0 1 1 1 0 0 0 0 0 0 0 0 0
0 0 0 0 0 0 0 0 0 0 0 0 0 0 0 0 0 0 0 0 0 0 0 0 0 0 0 0 0 1 2 2 2 1 0 0 0 0 1 1 1 0 0 0 0 0 0 0 0
0 0 0 0 0 0 0 0 0 0 0 0 0 0 0 0 0 0 0 0 0 0 0 0 0 0 0 0 0 0 1 2 2 1 0 0 0 0 0 1 1 1 0 0 0 0 0 0 0
0 0 0 0 0 0 0 0 0 0 0 0 0 0 0 0 0 0 0 0 0 0 0 0 0 0 0 0 0 0 0 1 1 0 0 0 0 0 0 1 2 1 0 0 0 0 0 0 0
0 0 0 0 0 0 0 0 0 0 0 0 0 0 0 0 0 0 0 0 0 0 0 0 0 0 0 0 0 0 0 0 0 0 0 0 0 0 0 1 2 2 1 0 0 0 0 0 0
0 0 0 0 0 0 0 0 0 0 0 0 0 0 0 0 0 0 0 0 0 0 0 0 0 0 0 0 0 0 0 0 0 0 0 0 0 0 0 0 1 2 2 1 0 0 0 0 0
0 0 0 0 0 0 0 0 0 0 0 0 0 0 0 0 0 0 0 0 0 0 0 0 0 0 0 0 0 0 0 0 0 0 0 0 0 0 0 0 1 2 2 1 0 0 0 0 0
0 0 0 0 0 0 0 0 0 0 0 0 0 0 0 0 0 0 0 0 0 0 0 0 0 0 0 0 0 0 0 0 0 0 0 0 0 0 0 0 1 2 3 1 0 0 0 0 0
0 0 0 0 0 0 0 0 0 0 0 0 0 0 0 0 0 0 0 0 0 0 0 0 0 0 0 0 0 0 0 0 0 0 0 0 0 0 0 0 1 2 3 2 1 0 0 0 0
0 0 0 0 0 0 0 0 0 0 0 0 0 0 0 0 0 0 0 0 0 0 0 0 0 0 0 0 0 0 0 0 0 0 0 0 0 0 0 0 0 1 2 2 1 0 0 0 0
0 0 0 0 0 0 0 0 0 0 0 0 0 0 0 0 0 0 0 0 0 0 0 0 0 0 0 0 0 0 0 0 0 0 0 0 0 0 0 0 0 0 1 1 0 0 0 0 0
0 0 0 0 0 0 0 0 0 0 0 0 0 0 0 0 0 0 0 0 0 0 0 0 0 0 0 0 0 0 0 0 0 0 0 0 0 0 0 0 0 0 0 0 0 0 0 0 0
0 0 0 0 0 0 0 0 0 0 0 0 0 0 0 0 0 0 0 0 0 0 0 0 0 0 0 0 0 0 0 0 0 0 0 0 0 0 0 0 0 0 0 0 0 0 0 0 0
0 0 0 0 0 0 0 0 0 0 0 0 0 0 0 0 0 0 0 0 0 0 0 0 0 0 0 0 0 0 0 0 0 0 0 0 0 0 0 0 0 0 0 0 0 0 0 0 0
0 0 0 0 0 0 0 0 0 0 0 0 0 0 0 0 0 0 0 0 0 0 0 0 0 0 0 0 0 0 0 0 0 0 0 0 0 0 0 0 0 0 0 0 0 0 0 0 0
Wind_Speed
10 6 2 4 5 3 3 5 3 1 1 1 1 5 6 4 3 3 1 3 5 6 6 7 8 10 10 11 12 12 11 11 11 11 11 11 11 11 11 11 11 11 11 11 12 12 13 12 12
4 3 4 4 4 2 4 4 4 4 4 1 2 3 4 2 2 4 1 2 5 6 6 6 8 9 10 11 11 11 11 11 10 10 10 10 10 10 11 11 11 11 11 11 12 12 12 12 11
5 2 4 3 3 6 5 3 4 2 1 0 2 3 3 2 2 2 1 4 5 5 5 6 9 9 9 10 10 11 11 11 10 10 10 10 10 10 10 10 10 10 11 11 11 11 11 11 11
3 4 4 2 5 5 4 2 2 1 2 2 3 3 2 2 2 2 3 6 6 5 4 6 9 9 9 10 10 10 9 10 10 10 9 9 10 10 10 9 10 10 11 11 11 11 10 10 10
3 4 3 1 5 3 3 3 1 1 1 1 2 3 1 3 3 5 6 6 6 5 4 5 8 8 8 9 9 9 9 8 9 9 9 9 10 9 9 9 9 10 10 10 11 10 10 10 9
4 3 3 4 5 3 3 3 1 0 1 1 2 3 1 1 4 4 5 6 5 5 5 5 7 7 7 7 8 8 8 8 8 9 9 9 9 9 9 9 9 9 10 10 10 9 9 9 9
3 3 3 4 3 3 3 2 0 1 2 2 2 4 1 1 2 3 5 6 5 4 4 4 4 5 6 6 7 7 7 7 7 7 8 8 8 8 8 8 9 9 9 9 9 8 8 8 8
3 3 1 2 3 4 2 1 1 1 3 1 3 5 3 2 1 4 5 5 4 4 4 4 3 3 3 3 5 6 6 6 6 7 6 6 7 8 7 7 8 8 8 8 8 7 7 7 7
3 3 3 4 4 3 1 2 4 2 0 1 1 2 3 3 4 6 5 4 3 3 2 3 3 2 2 2 4 4 5 5 5 5 6 5 3 4 4 6 7 7 7 7 7 6 5 5 5
3 3 5 2 1 2 2 2 3 2 1 1 1 2 3 4 6 5 4 3 2 1 1 2 2 2 2 2 3 2 2 3 2 2 3 2 2 2 3 6 6 6 6 5 5 4 4 3 2
2 4 3 2 2 2 2 4 3 0 2 2 2 2 2 3 4 4 3 2 2 1 1 2 2 2 2 2 2 2 1 1 2 2 2 2 2 2 2 2 3 3 3 2 2 2 1 1 1
1 2 2 2 2 2 2 3 3 2 5 3 3 4 4 4 3 4 4 2 1 1 1 1 2 2 2 2 2 2 2 2 2 2 3 3 2 2 2 2 2 2 1 1 1 1 1 1 1
1 2 2 3 3 2 2 3 3 6 5 2 1 3 4 4 3 2 3 3 1 1 1 1 2 2 2 2 2 3 2 2 2 2 2 2 2 2 2 2 1 1 1 2 1 1 1 1 0
1 1 3 3 3 2 2 4 2 7 3 1 1 3 4 4 4 2 2 2 2 2 2 2 2 3 2 2 2 3 3 2 2 2 2 3 3 3 3 2 2 1 1 2 2 2 2 1 1
1 2 4 3 2 2 0 5 5 6 3 2 3 3 3 4 4 4 4 3 3 2 2 2 2 2 3 3 3 3 3 3 3 2 3 2 3 3 3 3 2 2 2 2 2 2 1 1 1
2 2 2 3 2 2 2 7 4 3 2 3 3 3 2 3 4 4 3 3 2 2 2 2 2 2 2 3 3 2 3 3 2 2 3 3 3 3 3 3 2 1 1 2 2 2 2 1 1
2 1 3 4 2 1 2 7 5 3 2 3 3 3 3 2 2 2 2 2 2 2 2 2 1 2 2 2 3 2 2 3 2 2 3 3 3 3 3 3 2 2 2 1 2 1 2 1 1
3 3 3 4 3 1 4 8 7 3 3 4 3 2 2 2 3 2 1 2 2 2 2 2 2 2 2 2 2 2 2 2 2 2 3 3 3 3 3 3 3 3 2 2 2 2 1 1 1
3 3 5 6 4 3 6 9 9 5 4 4 4 3 3 4 4 2 1 1 1 1 2 2 2 2 2 2 2 2 3 2 2 2 3 3 3 3 3 2 3 3 3 2 2 2 1 1 1
3 3 4 5 3 3 4 8 7 4 4 4 4 4 4 4 4 3 1 1 1 1 2 2 3 3 3 3 3 2 2 2 2 2 3 4 4 4 3 3 3 3 3 3 2 2 1 1 1
2 3 3 3 5 3 3 7 4 2 2 2 3 3 3 4 4 3 2 2 1 2 2 3 3 3 3 3 2 1 1 1 1 2 2 3 3 3 3 3 3 2 3 3 3 3 3 3 2
3 2 2 2 2 3 1 4 6 3 3 4 5 4 3 3 3 4 4 3 3 3 3 3 3 2 3 3 3 4 3 3 3 3 2 2 3 3 3 3 3 3 3 3 3 3 2 3 3
3 2 2 1 1 2 1 2 8 2 4 7 6 5 4 3 3 4 4 4 3 3 2 3 2 2 2 3 4 4 3 3 2 2 2 2 2 3 3 3 3 3 3 4 3 2 2 2 3
1 2 3 4 4 2 3 3 8 3 5 6 5 5 4 3 3 3 3 2 2 1 2 2 2 2 2 2 3 4 4 3 3 3 3 3 2 2 3 3 3 3 3 4 3 3 3 3 3
3 4 4 5 3 5 2 3 8 5 4 4 5 5 4 3 2 2 2 2 2 2 2 2 2 2 3 3 3 4 5 4 5 4 4 3 3 2 3 3 3 3 3 3 3 3 4 3 3
1 3 4 3 4 5 3 5 7 3 3 3 3 3 3 3 3 2 2 2 2 2 2 2 2 3 3 3 3 3 4 4 3 4 4 4 3 3 4 4 4 3 3 3 3 3 3 3 3
1 1 3 3 1 3 5 6 7 3 5 5 5 5 5 5 5 4 3 3 2 2 2 2 2 2 2 2 2 3 3 4 4 4 4 3 3 3 3 3 3 3 3 3 3 3 3 3 3
1 2 3 3 1 4 6 5 5 5 5 5 5 5 6 5 5 5 4 3 2 2 2 1 1 1 1 1 2 2 3 3 3 3 4 4 4 3 3 3 3 3 3 3 3 2 2 3 3
1 1 1 2 3 3 4 7 3 3 3 3 4 4 4 4 5 5 4 4 3 2 2 1 1 1 1 1 2 2 2 1 2 2 3 4 3 4 4 4 4 4 3 3 3 3 3 3 3
2 2 3 2 3 3 3 8 3 2 3 3 4 5 6 5 5 4 4 4 3 3 3 2 2 1 1 1 1 1 1 1 1 2 2 2 3 3 4 3 3 3 3 3 3 3 3 3 3
Wind_Direction
336 338 32 54 59 64 225 240 214 211 222 218 109 106 113 113 133 154 144 124 117 137 142 140 135 137 135 131 129 127 125 123 120 118 116 114 113 111 112 111 110 113 113 114 112 110 108 105 102
334 348 50 63 108 175 243 235 214 218 201 187 65 80 86 88 80 104 91 120 123 134 140 139 131 126 132 131 131 130 129 126 123 122 122 120 117 114 115 114 113 112 115 115 115 114 112 109 105
332 31 81 90 157 191 215 228 212 241 345 50 68 57 106 120 118 138 160 128 116 126 131 135 128 127 126 129 130 131 132 130 128 127 126 125 122 119 118 118 117 114 115 118 119 117 114 112 107
37 45 60 106 214 222 211 238 226 266 350 17 99 70 64 27 151 150 126 115 116 118 119 125 123 127 126 131 129 127 131 135 135 133 129 128 126 123 121 123 122 119 118 120 120 118 116 114 110
63 81 88 217 233 246 254 268 245 192 274 346 94 113 70 348 86 114 119 110 109 118 122 128 122 123 121 128 132 133 130 134 139 138 134 132 132 129 126 127 127 125 123 121 121 121 119 115 111
59 78 123 217 234 253 278 281 279 272 267 316 91 128 161 37 81 102 111 109 106 122 128 131 127 123 122 122 128 133 134 133 138 142 139 135 132 132 131 133 132 130 127 125 122 124 122 117 112
107 112 175 201 225 250 258 279 196 195 251 249 166 126 139 30 77 105 107 105 98 100 114 116 127 127 125 119 126 127 133 133 132 136 140 138 136 135 133 135 135 135 133 130 126 123 125 122 117
127 113 198 213 216 239 270 314 329 193 241 271 119 137 183 225 128 100 95 95 95 89 102 102 107 119 124 123 125 124 123 127 127 123 125 134 137 139 137 135 134 135 139 139 135 129 128 125 119
95 95 212 217 210 239 321 346 330 334 119 23 68 164 181 146 109 92 79 70 75 74 101 117 109 118 125 127 129 128 126 121 121 123 119 120 131 137 138 136 134 132 135 140 141 138 131 126 117
100 165 217 229 225 259 312 318 312 354 2 353 24 36 101 116 114 111 107 101 91 58 129 130 135 125 135 134 137 132 124 125 121 122 125 117 123 135 137 138 135 133 128 129 130 129 127 116 109
152 192 216 268 294 295 307 315 317 219 268 219 185 176 129 122 122 130 138 144 158 164 211 159 163 154 140 140 145 134 128 131 128 129 131 124 118 123 123 132 131 126 119 111 104 94 82 108 133
179 235 221 252 299 312 303 310 315 250 240 230 202 179 158 145 152 159 156 163 170 161 260 181 166 159 156 159 158 147 147 148 148 152 143 138 132 133 146 145 140 136 136 132 124 124 113 104 145
228 252 279 280 300 295 297 273 269 265 261 263 185 153 171 171 178 180 169 164 154 170 253 216 176 169 170 161 164 150 154 157 156 147 148 146 150 152 149 152 161 151 150 157 162 152 152 166 181
217 282 298 291 291 294 260 278 258 261 266 264 212 181 186 184 177 174 167 168 181 193 231 195 184 179 164 165 162 162 163 160 152 152 161 155 156 162 156 150 161 162 174 179 177 172 168 194 197
35 348 318 278 237 232 165 292 238 252 264 249 235 210 204 199 192 190 191 189 187 188 225 192 175 178 167 165 169 164 166 160 162 170 167 157 152 158 158 151 168 186 181 176 167 160 150 173 201
32 30 306 286 217 211 166 267 271 265 245 245 243 219 214 213 205 200 197 193 184 182 211 191 182 169 172 173 173 171 167 167 170 172 169 162 156 158 157 160 175 184 167 167 173 166 164 199 208
27 271 261 289 255 196 202 258 279 291 256 263 262 239 234 229 240 225 205 193 189 189 206 187 170 165 181 183 176 170 173 175 177 173 166 166 161 160 162 168 176 161 162 167 181 169 172 198 231
226 236 254 263 277 281 262 265 282 273 256 258 266 268 265 254 247 240 220 218 213 203 202 189 165 173 183 176 167 165 166 176 170 176 175 171 171 162 160 172 170 164 160 170 178 181 186 195 218
220 235 263 270 283 284 257 273 280 270 256 258 267 269 269 272 270 254 213 211 225 195 182 195 173 194 174 170 181 190 192 183 179 184 178 175 175 172 170 180 180 176 175 183 184 175 183 215 153
229 253 277 293 306 295 285 284 278 258 238 239 245 258 262 275 288 280 253 193 214 242 225 199 187 200 192 189 192 194 193 186 183 187 187 187 181 184 188 189 189 186 181 183 187 173 179 220 186
264 225 243 272 324 330 326 305 293 299 266 272 270 263 258 255 264 273 265 234 201 229 239 234 211 201 196 188 162 152 140 164 181 194 202 199 189 195 200 197 189 192 188 198 204 197 189 208 240
268 241 239 274 340 305 4 296 283 285 301 298 298 304 285 272 254 249 245 239 225 226 227 229 219 204 199 185 170 172 192 204 209 202 204 214 203 202 201 197 197 198 203 207 215 212 210 193 220
234 269 284 289 163 318 293 240 281 306 290 290 292 297 298 285 247 240 244 238 238 225 218 221 208 202 201 191 185 183 199 222 204 185 190 210 220 212 206 203 206 208 214 216 215 213 221 215 215
239 23 29 44 68 299 241 194 278 262 263 294 303 303 305 300 274 261 263 256 252 244 233 224 195 204 192 183 185 185 198 210 201 202 202 209 221 219 212 212 215 218 219 222 218 209 210 225 222
60 71 26 0 3 259 259 218 255 265 278 275 294 304 301 301 308 306 308 297 281 261 251 238 205 215 203 188 193 197 203 205 209 209 209 209 215 218 214 217 219 221 220 220 217 209 212 219 223
186 134 154 209 241 282 299 242 257 277 307 310 311 330 347 338 330 320 305 288 284 275 265 244 226 229 220 200 204 202 208 205 212 209 213 214 221 220 214 215 217 220 220 220 212 211 215 217 216
136 175 175 139 248 275 275 285 298 309 342 354 357 359 349 338 331 327 326 322 302 286 269 253 247 245 235 221 212 212 208 207 209 206 205 214 225 226 213 218 217 215 210 212 209 211 215 213 215
142 149 103 128 199 270 286 271 265 301 312 334 339 336 335 340 338 329 324 323 316 307 298 303 266 251 243 228 222 226 219 217 214 206 206 210 215 217 210 217 215 214 212 214 211 212 214 212 223
93 88 124 145 175 196 273 272 244 259 277 302 308 317 328 329 323 319 322 329 335 346 342 332 320 303 276 248 236 226 233 230 224 216 216 214 211 201 204 214 214 213 211 209 208 215 213 214 220
184 183 154 175 244 216 241 271 292 299 291 313 318 327 329 326 323 322 323 334 347 349 343 343 344 318 277 255 228 221 238 218 204 211 218 209 209 208 202 209 215 213 212 209 205 215 222 219 217